Location: Unspecified
(0.0000°N, 0.0000°E)
Time: 19:46:31
(UTC+00:00)

deb Briz - Pass Details

Date: 20 February 2026
Orbit: 1683 x 2323 km, 64.7° (Epoch: 11 March)

Event Time Altitude Azimuth Distance (km) Brightness Sun altitude
Rises 19:47:35 0° 232° (SW) 5,699 ? -23.0°
Reaches altitude 10° 19:52:01 10° 244° (WSW) 4,770 ? -24.1°
Maximum altitude 20:01:31 25° 293° (WNW) 3,802 ? -26.5°
Drops below altitude 10° 20:11:22 10° 342° (NNW) 4,897 ? -28.9°
Sets 20:16:09 0° 356° (N) 5,879 ? -30.0°
